TimeMDT,TemperatureF,Dew PointF,Humidity,Sea Level PressureIn,VisibilityMPH,Wind Direction,Wind SpeedMPH,Gust SpeedMPH,PrecipitationIn,Events,Conditions,WindDirDegrees,DateUTC
12:00 AM,63,54,65,,,SSE,17.3,,,,,150,2013-09-16 06:00:00
12:00 AM,63.1,54.1,72,-9999,-9999.0,SSE,17.3,-,N/A,,Unknown,150,2013-09-16 06:00:00
1:00 AM,63.1,52.9,69,-9999,-9999.0,SSE,19.6,-,N/A,,Unknown,150,2013-09-16 07:00:00
2:00 AM,62.6,52.5,70,-9999,-9999.0,SSE,19.6,25.3,N/A,,Unknown,150,2013-09-16 08:00:00
3:00 AM,62.1,52.0,70,-9999,-9999.0,SSE,18.4,25.3,N/A,,Unknown,150,2013-09-16 09:00:00
4:00 AM,61.2,51.4,70,-9999,-9999.0,SSE,19.6,26.5,N/A,,Unknown,150,2013-09-16 10:00:00
5:00 AM,59.7,51.1,73,-9999,-9999.0,SSE,19.6,25.3,N/A,,Unknown,160,2013-09-16 11:00:00
6:00 AM,59,51,69,,,SSE,18.4,,,,,160,2013-09-16 12:00:00
6:00 AM,58.8,51.4,76,-9999,-9999.0,SSE,18.4,25.3,N/A,,Unknown,160,2013-09-16 12:00:00
7:00 AM,58.1,51.6,79,-9999,-9999.0,SSE,18.4,-,N/A,,Unknown,160,2013-09-16 13:00:00
8:00 AM,60.1,52.5,76,-9999,-9999.0,SSE,16.1,-,N/A,,Unknown,160,2013-09-16 14:00:00
9:00 AM,64.0,53.1,67,-9999,-9999.0,South,13.8,-,N/A,,Unknown,170,2013-09-16 15:00:00
10:00 AM,69.3,54.3,59,-9999,-9999.0,South,12.7,-,N/A,,Unknown,170,2013-09-16 16:00:00
11:00 AM,76.5,56.1,49,-9999,-9999.0,South,10.4,-,N/A,,Unknown,190,2013-09-16 17:00:00
12:00 PM,81,54,29,,,SW,6.9,,,,,220,2013-09-16 18:00:00
12:00 PM,81.3,54.5,40,-9999,-9999.0,SW,6.9,-,N/A,,Unknown,220,2013-09-16 18:00:00
1:00 PM,85.8,48.9,28,-9999,-9999.0,West,9.2,17.3,N/A,,Unknown,260,2013-09-16 19:00:00
2:00 PM,87.4,48.9,26,-9999,-9999.0,WSW,9.2,18.4,N/A,,Unknown,250,2013-09-16 20:00:00
3:00 PM,89.4,47.5,23,-9999,-9999.0,SW,8.1,17.3,N/A,,Unknown,230,2013-09-16 21:00:00
4:00 PM,87.6,47.8,25,-9999,-9999.0,West,11.5,21.9,N/A,,Unknown,270,2013-09-16 22:00:00
5:00 PM,85.8,41.9,21,-9999,-9999.0,West,19.6,29.9,N/A,,Unknown,260,2013-09-16 23:00:00
6:00 PM,83,41,13,,,West,20.7,,,,,270,2013-09-17 00:00:00
6:00 PM,82.8,40.6,22,-9999,-9999.0,West,20.7,28.8,N/A,,Unknown,270,2013-09-17 00:00:00
7:00 PM,77.0,44.6,32,-9999,-9999.0,West,10.4,-,N/A,,Unknown,280,2013-09-17 01:00:00
8:00 PM,69.8,41.9,36,-9999,-9999.0,West,10.4,-,N/A,,Unknown,280,2013-09-17 02:00:00
9:00 PM,66.0,46.2,49,-9999,-9999.0,West,9.2,-,N/A,,Unknown,270,2013-09-17 03:00:00
10:00 PM,62.4,45.5,54,-9999,-9999.0,West,8.1,-,N/A,,Unknown,260,2013-09-17 04:00:00
11:00 PM,58.8,44.8,60,-9999,-9999.0,SW,6.9,-,N/A,,Unknown,230,2013-09-17 05:00:00